EN

Hourly Weather Aba-el-Baul

Today, 13 June, Sunday

Time Temperature Precipitation Wind Pressure Humidity
00:00 +30°C° 0 mm 4 mps 746 mmHg 58%
01:00 +32°C° 0 mm 5 mps 745 mmHg 56%
02:00 +32°C° 0 mm 6 mps 745 mmHg 55%
03:00 +32°C° 0 mm 8 mps 745 mmHg 50%
04:00 +33°C° 0 mm 8 mps 746 mmHg 46%
05:00 +33°C° 0 mm 9 mps 746 mmHg 43%
06:00 +33°C° 0 mm 9 mps 747 mmHg 39%
07:00 +35°C° 0 mm 9 mps 747 mmHg 34%
08:00 +38°C° 0 mm 10 mps 747 mmHg 28%
09:00 +39°C° 0 mm 10 mps 747 mmHg 22%
10:00 +42°C° 0 mm 10 mps 747 mmHg 20%
11:00 +43°C° 0 mm 10 mps 747 mmHg 17%
12:00 +44°C° 0 mm 11 mps 746 mmHg 14%
13:00 +44°C° 0 mm 10 mps 746 mmHg 13%
14:00 +45°C° 0 mm 9 mps 746 mmHg 12%
15:00 +45°C° 0 mm 9 mps 745 mmHg 11%
16:00 +43°C° 0 mm 8 mps 745 mmHg 13%
17:00 +41°C° 0 mm 7 mps 745 mmHg 15%
18:00 +39°C° 0 mm 6 mps 746 mmHg 17%
19:00 +36°C° 0 mm 4 mps 746 mmHg 19%
20:00 +35°C° 0 mm 3 mps 746 mmHg 20%
21:00 +32°C° 0 mm 1 mps 746 mmHg 22%
22:00 +32°C° 0 mm 2 mps 746 mmHg 22%
23:00 +33°C° 0 mm 3 mps 745 mmHg 22%

Tomorrow, 14 June, Monday

Time Temperature Precipitation Wind Pressure Humidity
00:00 +33°C° 0 mm 4 mps 745 mmHg 22%
01:00 +33°C° 0 mm 5 mps 745 mmHg 24%
02:00 +33°C° 0 mm 5 mps 745 mmHg 26%
03:00 +32°C° 0 mm 6 mps 745 mmHg 27%
04:00 +33°C° 0 mm 7 mps 745 mmHg 34%
05:00 +33°C° 0 mm 8 mps 745 mmHg 40%
06:00 +34°C° 0 mm 9 mps 746 mmHg 46%
07:00 +37°C° 0 mm 9 mps 746 mmHg 39%
08:00 +39°C° 0 mm 10 mps 746 mmHg 31%
09:00 +42°C° 0 mm 10 mps 746 mmHg 24%
10:00 +43°C° 0 mm 10 mps 746 mmHg 20%
11:00 +45°C° 0 mm 9 mps 746 mmHg 15%
12:00 +47°C° 0 mm 9 mps 745 mmHg 11%
13:00 +47°C° 0 mm 9 mps 745 mmHg 10%
14:00 +48°C° 0 mm 9 mps 745 mmHg 9%
15:00 +48°C° 0 mm 9 mps 744 mmHg 8%
16:00 +45°C° 0 mm 7 mps 744 mmHg 10%
17:00 +42°C° 0 mm 6 mps 744 mmHg 12%
18:00 +40°C° 0 mm 5 mps 744 mmHg 14%
19:00 +38°C° 0 mm 4 mps 744 mmHg 15%
20:00 +37°C° 0 mm 3 mps 745 mmHg 16%
21:00 +35°C° 0 mm 2 mps 745 mmHg 17%
22:00 +35°C° 0 mm 3 mps 745 mmHg 18%
23:00 +35°C° 0 mm 3 mps 744 mmHg 19%

Day after tomorrow, 15 June, Tuesday

Time Temperature Precipitation Wind Pressure Humidity
00:00 +35°C° 0 mm 4 mps 744 mmHg 20%
01:00 +34°C° 0 mm 4 mps 744 mmHg 21%
02:00 +34°C° 0 mm 5 mps 744 mmHg 21%
03:00 +34°C° 0 mm 5 mps 744 mmHg 22%
04:00 +34°C° 0 mm 5 mps 744 mmHg 22%
05:00 +34°C° 0 mm 6 mps 744 mmHg 23%
06:00 +35°C° 0 mm 6 mps 744 mmHg 23%
07:00 +38°C° 0 mm 7 mps 745 mmHg 19%
08:00 +41°C° 0 mm 7 mps 745 mmHg 15%
09:00 +45°C° 0 mm 8 mps 745 mmHg 11%
10:00 +46°C° 0 mm 8 mps 744 mmHg 9%
11:00 +49°C° 0 mm 8 mps 744 mmHg 8%
12:00 +50°C° 0 mm 7 mps 744 mmHg 6%
13:00 +51°C° 0 mm 7 mps 743 mmHg 5%
14:00 +51°C° 0 mm 7 mps 743 mmHg 5%
15:00 +51°C° 0 mm 6 mps 742 mmHg 4%
16:00 +48°C° 0 mm 5 mps 742 mmHg 7%
17:00 +45°C° 0 mm 4 mps 742 mmHg 10%
18:00 +43°C° 0 mm 3 mps 742 mmHg 12%
19:00 +40°C° 0 mm 3 mps 743 mmHg 19%
20:00 +37°C° 0 mm 2 mps 743 mmHg 25%
21:00 +34°C° 0 mm 1 mps 743 mmHg 31%
22:00 +34°C° 0 mm 1 mps 743 mmHg 29%
23:00 +34°C° 0 mm 1 mps 743 mmHg 26%

16 June, Wednesday

Time Temperature Precipitation Wind Pressure Humidity
00:00 +33°C° 0 mm 1 mps 743 mmHg 24%
01:00 +34°C° 0 mm 2 mps 743 mmHg 22%
02:00 +34°C° 0 mm 3 mps 743 mmHg 21%
03:00 +34°C° 0 mm 3 mps 743 mmHg 20%
04:00 +35°C° 0 mm 3 mps 743 mmHg 19%
05:00 +35°C° 0 mm 4 mps 744 mmHg 18%
06:00 +35°C° 0 mm 4 mps 744 mmHg 18%
07:00 +38°C° 0 mm 4 mps 744 mmHg 15%
08:00 +42°C° 0 mm 5 mps 744 mmHg 12%
09:00 +45°C° 0 mm 5 mps 745 mmHg 9%
10:00 +47°C° 0 mm 6 mps 744 mmHg 9%
11:00 +49°C° 0 mm 7 mps 744 mmHg 9%
12:00 +50°C° 0 mm 8 mps 744 mmHg 9%
13:00 +50°C° 0 mm 9 mps 744 mmHg 10%
14:00 +49°C° 0 mm 10 mps 744 mmHg 11%
15:00 +48°C° 0 mm 11 mps 744 mmHg 13%
16:00 +47°C° 0 mm 9 mps 744 mmHg 16%
17:00 +44°C° 0 mm 8 mps 744 mmHg 19%
18:00 +41°C° 0 mm 6 mps 744 mmHg 22%
19:00 +39°C° 0 mm 5 mps 744 mmHg 26%
20:00 +37°C° 0 mm 5 mps 745 mmHg 30%
21:00 +35°C° 0 mm 4 mps 745 mmHg 35%
22:00 +35°C° 0 mm 4 mps 745 mmHg 36%
23:00 +35°C° 0 mm 5 mps 745 mmHg 38%

17 June, Thursday

Time Temperature Precipitation Wind Pressure Humidity
00:00 +34°C° 0 mm 5 mps 744 mmHg 40%
01:00 +34°C° 0 mm 6 mps 744 mmHg 38%
02:00 +34°C° 0 mm 7 mps 744 mmHg 35%
03:00 +34°C° 0 mm 7 mps 744 mmHg 33%
04:00 +34°C° 0 mm 8 mps 745 mmHg 30%
05:00 +35°C° 0 mm 8 mps 745 mmHg 28%
06:00 +35°C° 0 mm 8 mps 745 mmHg 25%
07:00 +38°C° 0 mm 9 mps 745 mmHg 22%
08:00 +40°C° 0 mm 10 mps 745 mmHg 20%
09:00 +43°C° 0 mm 11 mps 745 mmHg 17%
10:00 +44°C° 0 mm 11 mps 745 mmHg 15%
11:00 +46°C° 0 mm 11 mps 745 mmHg 12%
12:00 +48°C° 0 mm 12 mps 745 mmHg 10%
13:00 +47°C° 0 mm 12 mps 745 mmHg 10%
14:00 +47°C° 0 mm 12 mps 744 mmHg 9%
15:00 +47°C° 0 mm 12 mps 744 mmHg 9%
16:00 +44°C° 0 mm 10 mps 744 mmHg 11%
17:00 +43°C° 0 mm 9 mps 744 mmHg 13%
18:00 +40°C° 0 mm 8 mps 744 mmHg 14%
19:00 +38°C° 0 mm 7 mps 744 mmHg 19%
20:00 +36°C° 0 mm 6 mps 744 mmHg 24%
21:00 +34°C° 0 mm 4 mps 745 mmHg 29%
22:00 +34°C° 0 mm 5 mps 744 mmHg 31%
23:00 +34°C° 0 mm 6 mps 744 mmHg 33%

18 June, Friday

Time Temperature Precipitation Wind Pressure Humidity
00:00 +34°C° 0 mm 7 mps 744 mmHg 36%
01:00 +34°C° 0 mm 7 mps 744 mmHg 32%
02:00 +34°C° 0 mm 7 mps 744 mmHg 28%
03:00 +34°C° 0 mm 7 mps 744 mmHg 24%
04:00 +34°C° 0 mm 8 mps 744 mmHg 26%
05:00 +34°C° 0 mm 8 mps 744 mmHg 27%
06:00 +35°C° 0 mm 9 mps 744 mmHg 29%
07:00 +37°C° 0 mm 10 mps 745 mmHg 25%
08:00 +39°C° 0 mm 11 mps 745 mmHg 21%
09:00 +42°C° 0 mm 11 mps 745 mmHg 17%
10:00 +43°C° 0 mm 11 mps 745 mmHg 16%
11:00 +44°C° 0 mm 11 mps 744 mmHg 15%
12:00 +46°C° 0 mm 11 mps 744 mmHg 14%
13:00 +46°C° 0 mm 11 mps 744 mmHg 14%
14:00 +44°C° 0 mm 11 mps 744 mmHg 14%
15:00 +44°C° 0 mm 11 mps 743 mmHg 14%
16:00 +43°C° 0 mm 10 mps 744 mmHg 16%
17:00 +40°C° 0 mm 8 mps 744 mmHg 18%
18:00 +38°C° 0 mm 7 mps 744 mmHg 20%
19:00 +36°C° 0 mm 6 mps 744 mmHg 25%
20:00 +34°C° 0 mm 5 mps 744 mmHg 30%
21:00 +33°C° 0 mm 4 mps 744 mmHg 36%
22:00 +31°C° 0 mm 3 mps 744 mmHg 39%
23:00 +31°C° 0 mm 3 mps 744 mmHg 42%
Show more